N45VT KPHX-KGCN

Flight info

Callsign N45VT
Flight time 0h 58m
Altitude VFR/105
Route
Aircraft AEST/L-DOV/C

Departure

Time 2026-05-08 21:40
Airport Phoenix Sky Harbor International Airport (KPHX)

Arrival

Time 2026-05-08 22:38
Airport Grand Canyon National Park Airport (KGCN)
Time Latitude Longitude Altitude Speed Heading
2026-05-08 21:26 33.42499 -112.01934 1119 ft 0 kts 270°
2026-05-08 21:28 33.42499 -112.01935 1119 ft 1 kts 270°
2026-05-08 21:28 33.42517 -112.01954 1114 ft 8 kts
2026-05-08 21:28 33.42574 -112.01964 1119 ft 8 kts 299°
2026-05-08 21:28 33.42576 -112.02057 1119 ft 14 kts 271°
2026-05-08 21:29 33.42649 -112.02114 1119 ft 17 kts 359°
2026-05-08 21:29 33.42707 -112.02113 1119 ft 9 kts 360°
2026-05-08 21:29 33.42713 -112.02113 1115 ft 0 kts
2026-05-08 21:31 33.42715 -112.02113 1119 ft 3 kts
2026-05-08 21:31 33.42772 -112.02100 1119 ft 14 kts 58°
2026-05-08 21:31 33.42775 -112.01949 1119 ft 22 kts 90°
2026-05-08 21:31 33.42775 -112.01777 1119 ft 21 kts 90°
2026-05-08 21:32 33.42774 -112.01582 1120 ft 23 kts 90°
2026-05-08 21:32 33.42774 -112.01404 1120 ft 23 kts 89°
2026-05-08 21:32 33.42775 -112.01219 1120 ft 14 kts 90°
2026-05-08 21:32 33.42774 -112.01079 1119 ft 19 kts 90°
2026-05-08 21:33 33.42774 -112.00911 1119 ft 21 kts 90°
2026-05-08 21:33 33.42774 -112.00731 1119 ft 20 kts 90°
2026-05-08 21:33 33.42774 -112.00646 1119 ft 11 kts 89°
2026-05-08 21:33 33.42776 -112.00560 1119 ft 1 kts 71°
2026-05-08 21:34 33.42784 -112.00544 1118 ft 0 kts 55°
2026-05-08 21:38 33.42792 -112.00533 1115 ft 7 kts 36°
2026-05-08 21:38 33.42866 -112.00527 1118 ft 12 kts 359°
2026-05-08 21:38 33.42882 -112.00535 1118 ft 5 kts 301°
2026-05-08 21:38 33.42885 -112.00729 1118 ft 54 kts 270°
2026-05-08 21:39 33.42885 -112.01345 1132 ft 85 kts 267°
2026-05-08 21:39 33.42890 -112.02071 1192 ft 89 kts 268°
2026-05-08 21:39 33.42886 -112.02858 1389 ft 97 kts 268°
2026-05-08 21:39 33.43026 -112.03713 1581 ft 108 kts 304°
2026-05-08 21:40 33.43745 -112.04027 1841 ft 119 kts 359°
2026-05-08 21:40 33.44586 -112.03885 2150 ft 122 kts
2026-05-08 21:40 33.45405 -112.03720 2461 ft 122 kts
2026-05-08 21:41 33.47117 -112.03359 3114 ft 126 kts
2026-05-08 21:41 33.48011 -112.03286 3397 ft 131 kts 358°
2026-05-08 21:41 33.48880 -112.03207 3746 ft 121 kts 357°
2026-05-08 21:41 33.49754 -112.03122 3868 ft 128 kts 358°
2026-05-08 21:42 33.50636 -112.03026 4054 ft 129 kts 358°
2026-05-08 21:42 33.51524 -112.02926 4210 ft 126 kts 358°
2026-05-08 21:42 33.52400 -112.02847 4393 ft 127 kts 357°
2026-05-08 21:42 33.53285 -112.02762 4562 ft 128 kts 357°
2026-05-08 21:43 33.54168 -112.02682 4717 ft 126 kts 358°
2026-05-08 21:43 33.55042 -112.02601 4877 ft 125 kts 358°
2026-05-08 21:43 33.55917 -112.02523 5056 ft 126 kts 358°
2026-05-08 21:43 33.56793 -112.02446 5226 ft 125 kts 358°
2026-05-08 21:44 33.57662 -112.02369 5391 ft 125 kts 358°
2026-05-08 21:44 33.58533 -112.02289 5543 ft 126 kts 358°
2026-05-08 21:44 33.59400 -112.02206 5696 ft 124 kts 358°
2026-05-08 21:44 33.60259 -112.02123 5835 ft 124 kts 358°
2026-05-08 21:45 33.61116 -112.02036 5981 ft 124 kts 356°
2026-05-08 21:45 33.61986 -112.01961 6163 ft 125 kts 356°
2026-05-08 21:45 33.62858 -112.01889 6370 ft 125 kts 358°
2026-05-08 21:45 33.63719 -112.01820 6565 ft 126 kts 357°
2026-05-08 21:46 33.64590 -112.01752 6755 ft 125 kts 358°
2026-05-08 21:46 33.65460 -112.01688 6947 ft 125 kts 358°
2026-05-08 21:46 33.66327 -112.01634 7132 ft 124 kts 357°
2026-05-08 21:46 33.67192 -112.01589 7304 ft 124 kts 358°
2026-05-08 21:47 33.68053 -112.01546 7474 ft 124 kts 357°
2026-05-08 21:47 33.68914 -112.01513 7636 ft 124 kts 357°
2026-05-08 21:47 33.69772 -112.01481 7789 ft 123 kts 358°
2026-05-08 21:47 33.70631 -112.01451 7935 ft 123 kts 358°
2026-05-08 21:48 33.71491 -112.01424 8087 ft 123 kts 358°
2026-05-08 21:48 33.72347 -112.01398 8242 ft 123 kts 358°
2026-05-08 21:48 33.73201 -112.01375 8378 ft 123 kts 357°
2026-05-08 21:48 33.74056 -112.01356 8493 ft 123 kts 358°
2026-05-08 21:49 33.74906 -112.01336 8611 ft 121 kts 358°
2026-05-08 21:49 33.75753 -112.01318 8729 ft 121 kts 358°
2026-05-08 21:49 33.76594 -112.01306 8851 ft 120 kts 357°
2026-05-08 21:49 33.77427 -112.01291 8967 ft 119 kts 358°
2026-05-08 21:50 33.78254 -112.01283 9084 ft 118 kts 357°
2026-05-08 21:50 33.79062 -112.01278 9195 ft 117 kts 358°
2026-05-08 21:50 33.79872 -112.01278 9301 ft 116 kts 357°
2026-05-08 21:50 33.80678 -112.01278 9394 ft 115 kts 358°
2026-05-08 21:51 33.81480 -112.01279 9482 ft 115 kts 359°
2026-05-08 21:51 33.82282 -112.01281 9571 ft 115 kts 357°
2026-05-08 21:51 33.83080 -112.01280 9660 ft 113 kts 358°
2026-05-08 21:51 33.83868 -112.01280 9751 ft 113 kts 358°
2026-05-08 21:52 33.84655 -112.01280 9816 ft 112 kts 358°
2026-05-08 21:52 33.85434 -112.01282 9890 ft 112 kts 358°
2026-05-08 21:52 33.86213 -112.01288 9954 ft 111 kts 358°
2026-05-08 21:52 33.86985 -112.01293 10001 ft 110 kts 357°
2026-05-08 21:53 33.87754 -112.01296 10054 ft 110 kts 358°
2026-05-08 21:53 33.88520 -112.01293 10094 ft 109 kts 358°
2026-05-08 21:53 33.89282 -112.01284 10140 ft 109 kts 358°
2026-05-08 21:53 33.90028 -112.01268 10170 ft 108 kts 357°
2026-05-08 21:54 33.90775 -112.01284 10226 ft 107 kts 350°
2026-05-08 21:54 33.91512 -112.01433 10277 ft 105 kts 346°
2026-05-08 21:54 33.92217 -112.01628 10320 ft 105 kts 344°
2026-05-08 21:54 33.92938 -112.01819 10356 ft 106 kts 345°
2026-05-08 21:55 33.93653 -112.02022 10407 ft 105 kts 345°
2026-05-08 21:55 33.94375 -112.02177 10435 ft 105 kts 348°
2026-05-08 21:55 33.95102 -112.02317 10480 ft 106 kts 349°
2026-05-08 21:56 33.96570 -112.02549 10540 ft 108 kts 353°
2026-05-08 21:56 33.97325 -112.02587 10551 ft 110 kts 358°
2026-05-08 21:56 33.98085 -112.02544 10572 ft 113 kts
2026-05-08 21:56 33.98886 -112.02484 10583 ft 118 kts
2026-05-08 21:57 33.99716 -112.02354 10562 ft 125 kts
2026-05-08 21:57 34.00589 -112.02188 10516 ft 130 kts
2026-05-08 21:57 34.01488 -112.02057 10546 ft 130 kts
2026-05-08 21:57 34.02401 -112.01911 10554 ft 133 kts
2026-05-08 21:58 34.03341 -112.01770 10549 ft 140 kts 355°
2026-05-08 21:58 34.04315 -112.02031 10506 ft 145 kts 341°
2026-05-08 21:58 34.05295 -112.02380 10520 ft 148 kts 342°
2026-05-08 21:58 34.05958 -112.02598 10524 ft 149 kts 343°
2026-05-08 21:59 34.06980 -112.02900 10529 ft 152 kts 344°
2026-05-08 21:59 34.08041 -112.03056 10523 ft 156 kts
2026-05-08 21:59 34.09134 -112.02964 10530 ft 159 kts 358°
2026-05-08 21:59 34.10244 -112.02979 10536 ft 161 kts 353°
2026-05-08 22:00 34.11364 -112.03105 10530 ft 162 kts 349°
2026-05-08 22:00 34.12482 -112.03303 10530 ft 163 kts 347°
2026-05-08 22:00 34.13591 -112.03530 10535 ft 161 kts 347°
2026-05-08 22:00 34.14687 -112.03751 10530 ft 161 kts 347°
2026-05-08 22:01 34.15797 -112.03957 10527 ft 162 kts 349°
2026-05-08 22:01 34.16917 -112.04100 10531 ft 161 kts 351°
2026-05-08 22:01 34.18043 -112.04186 10521 ft 163 kts 353°
2026-05-08 22:01 34.19174 -112.04227 10538 ft 163 kts 355°
2026-05-08 22:02 34.20314 -112.04238 10526 ft 164 kts 355°
2026-05-08 22:02 34.21456 -112.04238 10531 ft 164 kts 355°
2026-05-08 22:02 34.22606 -112.04235 10532 ft 165 kts 355°
2026-05-08 22:02 34.23755 -112.04251 10528 ft 166 kts 354°
2026-05-08 22:03 34.24917 -112.04299 10529 ft 168 kts 353°
2026-05-08 22:03 34.26071 -112.04372 10528 ft 168 kts 352°
2026-05-08 22:03 34.27239 -112.04462 10532 ft 168 kts 351°
2026-05-08 22:03 34.28409 -112.04563 10530 ft 169 kts 351°
2026-05-08 22:04 34.29584 -112.04669 10531 ft 169 kts 351°
2026-05-08 22:04 34.30759 -112.04768 10534 ft 169 kts 352°
2026-05-08 22:04 34.31939 -112.04856 10528 ft 170 kts 352°
2026-05-08 22:04 34.33120 -112.04934 10529 ft 170 kts 353°
2026-05-08 22:05 34.34304 -112.05001 10529 ft 170 kts 353°
2026-05-08 22:05 34.35491 -112.05055 10531 ft 171 kts 354°
2026-05-08 22:05 34.36683 -112.05108 10521 ft 173 kts 354°
2026-05-08 22:05 34.37881 -112.05168 10526 ft 171 kts 354°
2026-05-08 22:06 34.39059 -112.05231 10526 ft 172 kts 352°
2026-05-08 22:06 34.40262 -112.05299 10517 ft 174 kts 353°
2026-05-08 22:06 34.41472 -112.05376 10515 ft 174 kts 353°
2026-05-08 22:06 34.42681 -112.05458 10519 ft 174 kts 353°
2026-05-08 22:07 34.43899 -112.05537 10517 ft 176 kts 354°
2026-05-08 22:07 34.45118 -112.05609 10517 ft 176 kts 353°
2026-05-08 22:07 34.46335 -112.05682 10524 ft 175 kts 353°
2026-05-08 22:07 34.47553 -112.05753 10535 ft 175 kts 354°
2026-05-08 22:08 34.48771 -112.05821 10543 ft 175 kts 354°
2026-05-08 22:08 34.49990 -112.05895 10545 ft 176 kts 354°
2026-05-08 22:08 34.51216 -112.05961 10538 ft 176 kts 355°
2026-05-08 22:08 34.52444 -112.06029 10544 ft 176 kts 354°
2026-05-08 22:09 34.53655 -112.06104 10544 ft 176 kts 354°
2026-05-08 22:09 34.54878 -112.06173 10553 ft 176 kts 354°
2026-05-08 22:09 34.56104 -112.06237 10569 ft 177 kts 354°
2026-05-08 22:09 34.57332 -112.06305 10552 ft 176 kts 353°
2026-05-08 22:10 34.58549 -112.06374 10565 ft 174 kts 353°
2026-05-08 22:10 34.59766 -112.06445 10580 ft 176 kts 353°
2026-05-08 22:10 34.60989 -112.06527 10558 ft 175 kts 354°
2026-05-08 22:10 34.62212 -112.06610 10563 ft 176 kts 353°
2026-05-08 22:11 34.63442 -112.06694 10567 ft 177 kts 354°
2026-05-08 22:11 34.64680 -112.06773 10551 ft 178 kts 354°
2026-05-08 22:11 34.65908 -112.06841 10576 ft 176 kts 353°
2026-05-08 22:11 34.67134 -112.06901 10564 ft 175 kts 353°
2026-05-08 22:12 34.68327 -112.06966 10555 ft 173 kts 353°
2026-05-08 22:12 34.69530 -112.07037 10570 ft 174 kts 353°
2026-05-08 22:12 34.70744 -112.07110 10568 ft 174 kts 353°
2026-05-08 22:12 34.71959 -112.07185 10578 ft 175 kts 353°
2026-05-08 22:13 34.73181 -112.07268 10569 ft 176 kts 353°
2026-05-08 22:13 34.74404 -112.07354 10577 ft 177 kts 353°
2026-05-08 22:13 34.75623 -112.07429 10581 ft 175 kts 353°
2026-05-08 22:13 34.76842 -112.07499 10585 ft 176 kts 353°
2026-05-08 22:14 34.78059 -112.07566 10585 ft 175 kts 353°
2026-05-08 22:14 34.79277 -112.07635 10590 ft 175 kts 353°
2026-05-08 22:14 34.80495 -112.07703 10589 ft 175 kts 353°
2026-05-08 22:14 34.81703 -112.07773 10600 ft 174 kts 353°
2026-05-08 22:15 34.82908 -112.07844 10606 ft 173 kts 353°
2026-05-08 22:15 34.84111 -112.07916 10609 ft 173 kts 353°
2026-05-08 22:15 34.85319 -112.07988 10608 ft 174 kts 353°
2026-05-08 22:15 34.86530 -112.08059 10605 ft 175 kts 351°
2026-05-08 22:16 34.87739 -112.08128 10622 ft 175 kts 353°
2026-05-08 22:16 34.88960 -112.08211 10606 ft 176 kts 353°
2026-05-08 22:16 34.90183 -112.08285 10598 ft 177 kts 353°
2026-05-08 22:16 34.91406 -112.08363 10602 ft 176 kts 353°
2026-05-08 22:17 34.92632 -112.08443 10594 ft 175 kts 354°
2026-05-08 22:17 34.93850 -112.08516 10599 ft 176 kts 353°
2026-05-08 22:17 34.95068 -112.08589 10590 ft 176 kts 353°
2026-05-08 22:17 34.96287 -112.08661 10575 ft 174 kts 353°
2026-05-08 22:18 34.97492 -112.08734 10601 ft 173 kts 353°
2026-05-08 22:18 34.98701 -112.08804 10600 ft 173 kts 353°
2026-05-08 22:18 34.99917 -112.08867 10595 ft 176 kts 353°
2026-05-08 22:18 35.01148 -112.08941 10584 ft 178 kts 353°
2026-05-08 22:19 35.02370 -112.09018 10603 ft 177 kts 353°
2026-05-08 22:19 35.03609 -112.09099 10626 ft 178 kts 353°
2026-05-08 22:19 35.04846 -112.09178 10633 ft 178 kts 353°
2026-05-08 22:19 35.06076 -112.09258 10664 ft 176 kts 353°
2026-05-08 22:20 35.07306 -112.09340 10679 ft 179 kts 353°
2026-05-08 22:20 35.08549 -112.09418 10674 ft 178 kts 354°
2026-05-08 22:20 35.09775 -112.09493 10699 ft 175 kts 354°
2026-05-08 22:20 35.10992 -112.09561 10731 ft 176 kts 353°
2026-05-08 22:21 35.12222 -112.09637 10720 ft 178 kts 354°
2026-05-08 22:21 35.13451 -112.09714 10735 ft 176 kts 353°
2026-05-08 22:21 35.14671 -112.09787 10748 ft 175 kts 353°
2026-05-08 22:21 35.15885 -112.09855 10760 ft 173 kts 354°
2026-05-08 22:22 35.17085 -112.09918 10785 ft 173 kts 354°
2026-05-08 22:22 35.18304 -112.09983 10779 ft 176 kts 354°
2026-05-08 22:22 35.19509 -112.10052 10775 ft 176 kts 355°
2026-05-08 22:22 35.20757 -112.10123 10666 ft 182 kts 354°
2026-05-08 22:23 35.22040 -112.10178 10662 ft 185 kts 354°
2026-05-08 22:23 35.23325 -112.10239 10671 ft 184 kts 356°
2026-05-08 22:23 35.24602 -112.10257 10683 ft 184 kts 356°
2026-05-08 22:23 35.25886 -112.10306 10639 ft 186 kts 355°
2026-05-08 22:24 35.27180 -112.10352 10598 ft 184 kts 355°
2026-05-08 22:24 35.28452 -112.10400 10639 ft 181 kts 356°
2026-05-08 22:24 35.29719 -112.10401 10658 ft 183 kts 357°
2026-05-08 22:24 35.31022 -112.10383 10540 ft 190 kts 358°
2026-05-08 22:25 35.32333 -112.10319 10533 ft 190 kts
2026-05-08 22:25 35.33649 -112.10176 10566 ft 187 kts
2026-05-08 22:25 35.34898 -112.10338 10695 ft 178 kts 340°
2026-05-08 22:25 35.36030 -112.10897 10747 ft 174 kts 335°
2026-05-08 22:26 35.37166 -112.11382 10775 ft 172 kts 342°
2026-05-08 22:26 35.38334 -112.11696 10806 ft 172 kts 349°
2026-05-08 22:26 35.39529 -112.11850 10816 ft 173 kts 355°
2026-05-08 22:26 35.40736 -112.11864 10810 ft 174 kts 358°
2026-05-08 22:27 35.41957 -112.11809 10804 ft 177 kts
2026-05-08 22:27 35.43207 -112.11729 10795 ft 182 kts
2026-05-08 22:27 35.44506 -112.11648 10621 ft 196 kts
2026-05-08 22:27 35.45902 -112.11541 10537 ft 198 kts
2026-05-08 22:28 35.47255 -112.11435 10544 ft 198 kts
2026-05-08 22:28 35.48626 -112.11309 10577 ft 195 kts
2026-05-08 22:28 35.49999 -112.11255 10505 ft 201 kts 354°
2026-05-08 22:28 35.51375 -112.11411 10565 ft 195 kts 352°
2026-05-08 22:29 35.52718 -112.11583 10535 ft 197 kts 351°
2026-05-08 22:29 35.54091 -112.11791 10473 ft 199 kts 351°
2026-05-08 22:29 35.55477 -112.11981 10406 ft 202 kts 352°
2026-05-08 22:29 35.56897 -112.12187 10116 ft 209 kts 345°
2026-05-08 22:30 35.58267 -112.12856 9626 ft 215 kts 333°
2026-05-08 22:30 35.59612 -112.13614 9378 ft 214 kts 335°
2026-05-08 22:30 35.60987 -112.14318 9100 ft 215 kts 336°
2026-05-08 22:30 35.62372 -112.15012 8845 ft 214 kts 336°
2026-05-08 22:31 35.63751 -112.15700 8491 ft 216 kts 336°
2026-05-08 22:31 35.65147 -112.16424 8091 ft 219 kts 335°
2026-05-08 22:31 35.66571 -112.17065 7806 ft 216 kts 341°
2026-05-08 22:31 35.68015 -112.17540 7581 ft 214 kts 344°
2026-05-08 22:32 35.69412 -112.17965 7562 ft 199 kts 343°
2026-05-08 22:32 35.70684 -112.18363 7668 ft 179 kts 344°
2026-05-08 22:32 35.71888 -112.18675 7619 ft 177 kts 346°
2026-05-08 22:32 35.73094 -112.18969 7543 ft 175 kts 346°
2026-05-08 22:33 35.74274 -112.19257 7681 ft 168 kts 347°
2026-05-08 22:33 35.75411 -112.19511 7834 ft 167 kts 347°
2026-05-08 22:33 35.76582 -112.19715 7870 ft 174 kts 353°
2026-05-08 22:33 35.77770 -112.19727 7974 ft 172 kts 360°
2026-05-08 22:34 35.78975 -112.19673 8045 ft 174 kts 359°
2026-05-08 22:34 35.80177 -112.19593 8136 ft 175 kts 359°
2026-05-08 22:34 35.81413 -112.19528 8152 ft 180 kts 359°
2026-05-08 22:34 35.82666 -112.19469 8242 ft 181 kts 359°
2026-05-08 22:35 35.83945 -112.19411 8208 ft 189 kts 357°
2026-05-08 22:35 35.85262 -112.19412 8269 ft 188 kts 358°
2026-05-08 22:35 35.86597 -112.19443 7912 ft 195 kts 347°
2026-05-08 22:35 35.87860 -112.20084 7652 ft 190 kts 333°
2026-05-08 22:36 35.89012 -112.20551 7580 ft 160 kts 358°
2026-05-08 22:36 35.90037 -112.20160 7289 ft 154 kts 31°
2026-05-08 22:36 35.90813 -112.19348 7059 ft 136 kts 39°
2026-05-08 22:36 35.91463 -112.18648 6934 ft 114 kts 32°
2026-05-08 22:37 35.92044 -112.18053 6857 ft 105 kts 36°
2026-05-08 22:37 35.92590 -112.17469 6863 ft 104 kts 32°
2026-05-08 22:37 35.93138 -112.16899 6799 ft 103 kts 37°
2026-05-08 22:37 35.93690 -112.16316 6732 ft 105 kts 35°
2026-05-08 22:38 35.94263 -112.15715 6594 ft 109 kts 32°
2026-05-08 22:38 35.94797 -112.15160 6560 ft 83 kts 38°
2026-05-08 22:38 35.95122 -112.14817 6571 ft 36 kts 40°
2026-05-08 22:38 35.95217 -112.14707 6575 ft 7 kts 78°
2026-05-08 22:39 35.95198 -112.14639 6576 ft 10 kts 131°
2026-05-08 22:39 35.95180 -112.14606 6576 ft 8 kts 94°
2026-05-08 22:39 35.95221 -112.14538 6578 ft 13 kts 40°
2026-05-08 22:39 35.95309 -112.14445 6582 ft 20 kts 40°
2026-05-08 22:40 35.95398 -112.14350 6586 ft 12 kts 40°
2026-05-08 22:40 35.95471 -112.14271 6590 ft 16 kts 41°
2026-05-08 22:40 35.95563 -112.14175 6593 ft 19 kts 41°
2026-05-08 22:40 35.95663 -112.14068 6599 ft 20 kts 38°
2026-05-08 22:41 35.95775 -112.13949 6601 ft 22 kts 40°
2026-05-08 22:41 35.95861 -112.13860 6605 ft 16 kts 41°
2026-05-08 22:41 35.95925 -112.13791 6606 ft 8 kts 40°
2026-05-08 22:41 35.95924 -112.13736 6607 ft 10 kts 131°
2026-05-08 22:42 35.95904 -112.13706 6607 ft 0 kts 129°